Location: Prairie Dale
(45.6972°N, 104.5033°W)
Time: 10:09:54
(UTC+00:00)

STARS - Pass Details

Date: 29 June 2022
Orbit: 620 x 637 km, 98.2° (Epoch: 14 August)

Event Time Altitude Azimuth Distance (km) Brightness Sun altitude
Rises 07:18:56 0° 355° (N) 2,938 ? -21.0°
Reaches altitude 10° 07:22:23 10° 326° (NW) 2,019 ? -20.9°
Maximum altitude 07:24:09 12° 302° (WNW) 1,863 ? -20.9°
Drops below altitude 10° 07:25:55 10° 278° (W) 2,009 ? -20.9°
Enters shadow 07:27:22 - 262° (W) 2,320 ? -20.8°
